Wind_Speed
13 13 13 14 16 13 10 9 9 7 6 5 4 3 2 2 1 1 0 0 0 1 2 3 4 4 3 4 4 3 4 4 4 4 3 3 2 2 2 2 3 3 3 3 3 4 3 3 3
12 11 12 15 14 12 10 9 8 7 7 6 5 4 3 2 2 1 1 0 1 2 2 3 3 4 4 4 4 4 4 5 4 3 3 3 3 2 3 3 3 3 3 3 4 4 4 4 4
12 12 14 15 12 11 10 10 9 8 7 7 6 5 4 3 2 1 1 1 2 3 3 3 3 4 4 4 4 3 4 4 3 3 3 3 3 3 3 3 4 3 3 3 4 4 4 4 4
13 15 16 14 11 11 10 10 9 8 7 7 7 6 5 4 3 2 2 3 4 3 3 3 3 4 4 4 4 4 4 4 4 4 4 3 4 4 4 4 4 4 5 4 4 4 4 4 4
12 15 16 13 11 11 10 10 9 8 8 8 7 6 6 5 4 3 3 4 4 3 3 3 3 3 4 4 4 4 4 4 4 4 4 4 4 4 4 5 5 5 5 5 4 4 4 5 5
13 15 14 10 9 10 10 10 9 9 9 9 8 7 6 5 5 4 4 4 4 4 4 3 4 4 4 4 4 4 4 4 4 4 5 5 5 5 5 6 5 6 6 6 5 5 5 6 6
14 16 13 8 9 9 10 10 10 10 9 9 8 7 7 6 5 5 4 4 4 4 4 4 4 3 3 4 4 4 4 4 4 5 5 5 5 6 6 6 6 6 6 6 6 6 6 6 6
13 14 11 8 8 9 10 11 11 10 10 10 9 8 7 7 6 5 5 5 5 5 5 5 4 3 3 3 4 4 4 4 4 4 4 5 5 5 5 5 5 6 6 6 6 6 7 7 6
10 12 9 8 9 9 10 11 11 10 10 10 9 9 8 7 6 6 5 5 5 5 5 5 4 4 4 3 4 4 4 3 3 4 4 5 5 5 5 5 5 5 5 5 6 6 7 7 6
8 8 7 8 8 9 10 10 11 11 10 10 10 10 9 8 7 7 7 6 6 5 5 5 5 5 4 3 3 3 3 3 3 3 4 4 4 5 5 5 5 5 5 6 6 6 7 7 7
6 6 7 7 8 9 10 10 12 11 10 11 12 11 10 9 8 8 7 7 6 6 5 5 5 4 4 3 2 2 2 2 3 4 4 4 4 5 5 5 5 5 5 6 6 7 8 8 8
6 6 7 8 9 9 9 10 11 11 11 11 11 12 11 10 10 9 8 7 7 6 5 5 4 3 3 3 2 2 2 3 3 3 3 4 4 5 5 4 4 5 5 6 7 7 8 8 8
5 6 8 9 9 8 8 10 11 11 12 11 11 12 12 11 10 9 8 7 6 6 5 5 4 3 3 3 3 3 3 3 3 3 3 4 4 4 4 4 4 5 5 6 6 7 8 8 8
6 6 8 9 9 9 10 11 11 12 11 11 12 12 12 11 10 9 9 8 7 6 6 5 4 4 3 3 3 3 3 3 3 3 4 4 4 4 4 5 4 5 5 6 6 7 7 8 8
5 6 7 8 8 8 10 11 11 12 11 11 12 12 12 11 10 10 9 9 8 7 7 6 5 4 4 3 3 2 2 2 3 3 3 3 3 4 4 4 4 5 5 5 6 7 7 7 8
4 5 6 7 9 9 9 10 11 11 11 12 12 12 12 11 11 11 10 9 8 7 6 6 5 4 4 3 3 2 2 2 2 3 3 3 3 4 4 4 4 5 5 5 5 6 6 7 7
2 3 5 6 7 8 9 9 10 11 11 11 12 12 12 12 12 11 11 10 9 7 7 6 5 5 4 3 3 2 2 2 3 3 3 3 3 3 4 4 4 5 5 5 5 6 6 6 7
1 2 2 4 7 7 8 9 10 10 11 11 11 12 12 12 11 11 11 10 9 8 7 7 6 5 4 3 3 2 2 2 2 2 3 3 3 4 4 4 5 5 5 5 6 6 6 6 7
2 3 2 3 4 5 6 8 9 10 10 10 10 11 11 11 11 11 11 10 9 9 8 7 7 6 5 4 4 2 2 2 2 3 2 3 4 4 4 5 5 5 5 6 7 7 7 6 6
4 4 2 4 4 5 4 6 7 8 10 11 10 10 10 11 11 11 10 10 9 9 9 8 7 7 6 5 4 2 2 2 2 3 3 4 4 4 4 5 5 6 6 6 7 7 8 8 7
5 5 4 4 4 5 6 5 7 9 9 10 11 9 9 10 11 10 10 9 9 9 9 9 8 8 6 5 4 4 3 3 3 3 4 4 5 5 5 6 6 6 6 7 7 7 8 8 8
7 5 5 5 5 5 5 4 7 9 9 10 10 10 10 10 10 11 10 10 10 9 9 9 8 8 7 6 5 5 4 3 3 4 5 5 5 6 6 7 6 7 6 7 8 8 8 9 8
7 6 5 5 5 5 6 5 5 9 9 9 10 10 10 10 9 10 10 10 10 9 9 8 8 8 7 6 6 6 5 5 5 5 5 6 6 6 7 7 7 7 8 8 8 8 8 9 8
8 7 6 5 6 6 5 5 4 8 7 8 9 9 9 10 10 9 9 10 10 10 9 9 9 8 7 7 7 6 6 6 6 6 6 7 7 8 8 8 8 9 9 9 9 9 9 9 9
10 8 6 4 7 6 4 5 6 8 8 8 8 8 8 9 10 10 10 10 10 10 9 9 8 8 8 8 8 7 7 7 7 7 8 8 9 9 9 9 10 10 10 10 10 10 11 10 11
11 9 6 5 7 5 5 7 8 9 10 10 9 9 9 8 10 11 11 11 11 11 10 10 9 9 9 9 9 8 8 8 8 9 9 10 10 10 10 10 10 11 11 11 11 12 12 13 13
13 12 11 9 9 9 7 8 8 8 10 10 9 10 10 9 9 11 11 11 11 11 11 11 10 10 10 10 10 10 9 9 10 10 11 11 11 10 10 11 11 12 12 13 13 13 14 14 14
14 13 13 12 11 11 9 8 9 10 11 10 11 10 11 11 11 11 12 11 11 11 11 12 12 11 11 11 11 11 10 10 11 11 11 11 11 11 11 11 12 13 14 14 14 15 15 14 14
15 14 14 13 12 11 11 10 10 10 12 12 12 12 11 11 12 12 12 13 12 13 12 12 13 13 12 12 12 12 12 12 11 12 12 12 12 12 12 13 14 15 15 15 16 15 15 15 15
15 16 14 14 14 14 13 11 10 10 13 12 12 12 12 11 13 13 14 14 14 14 14 14 14 14 14 13 14 14 14 13 13 13 13 13 13 14 14 14 15 15 16 16 17 17 16 16 17
Wind_Direction
72 68 66 66 56 44 39 31 21 23 28 27 19 16 9 20 6 351 346 74 71 104 131 132 143 142 138 135 131 131 131 124 115 118 117 109 103 87 79 91 91 79 78 75 59 55 62 61 49
74 69 65 62 53 38 29 22 28 24 22 24 22 15 8 16 7 335 314 267 123 109 119 136 141 147 137 131 125 116 125 122 118 117 112 109 111 96 81 95 82 76 69 59 53 50 52 50 37
75 68 63 58 43 30 23 19 21 21 17 17 19 21 20 18 8 1 29 91 122 113 115 125 138 134 128 134 134 126 127 122 116 107 111 108 117 109 91 84 77 66 60 52 56 51 45 47 34
74 69 61 58 39 25 20 18 19 22 16 16 19 26 37 32 40 58 80 107 107 104 116 126 126 123 118 125 136 130 125 121 114 99 96 99 107 94 81 84 78 64 59 64 56 45 40 40 35
75 62 52 40 31 20 17 20 19 23 22 20 24 33 35 42 54 67 81 94 98 101 107 120 119 107 101 104 107 117 113 116 114 98 93 100 99 89 77 77 72 66 62 64 54 45 49 50 44
65 62 59 34 29 19 23 25 24 28 26 24 27 26 29 41 52 67 82 84 86 81 87 101 107 103 101 102 101 101 105 113 110 100 101 103 92 87 81 75 73 62 63 66 58 52 59 51 42
60 57 56 32 26 25 25 26 25 25 27 23 27 31 36 38 46 56 73 80 81 81 81 85 96 99 99 105 104 108 113 113 107 105 100 93 87 84 76 69 68 61 61 62 60 57 57 49 45
48 58 51 27 26 25 27 28 25 28 29 27 31 35 41 45 46 51 68 75 75 80 91 93 95 99 101 107 102 104 111 109 101 97 92 81 81 78 75 73 68 56 55 54 51 49 45 44 40
55 56 43 24 24 30 30 27 25 26 29 28 30 32 39 49 47 54 60 67 67 70 78 86 84 88 99 102 96 102 105 99 90 88 81 75 76 75 71 69 66 53 47 45 40 40 37 36 33
48 48 35 27 26 31 32 31 28 29 29 29 31 35 37 46 49 60 65 67 69 74 75 74 71 78 79 90 107 109 99 88 97 93 82 78 76 71 68 66 58 53 45 40 39 36 36 35 32
48 36 36 31 29 30 29 31 31 32 32 34 36 39 42 46 54 60 62 64 66 68 70 69 64 67 67 73 91 104 93 77 89 82 79 77 74 68 64 57 54 48 41 38 40 40 37 37 33
48 34 35 30 31 31 30 31 34 36 33 34 37 37 39 43 50 56 58 60 65 65 63 61 58 55 56 59 72 83 72 67 76 76 78 73 65 66 64 57 54 45 40 44 46 42 40 37 32
56 39 35 34 32 33 35 37 36 38 38 37 38 37 38 42 53 55 55 59 58 59 55 53 55 53 57 55 61 62 68 66 77 77 70 66 59 61 59 49 49 44 47 46 44 40 39 36 32
68 42 32 32 30 23 29 38 31 35 33 35 34 34 38 43 46 47 50 50 52 54 51 47 49 48 48 50 53 58 63 58 60 68 68 61 61 59 48 42 41 42 44 41 39 31 39 35 28
71 47 32 28 27 14 11 28 32 28 29 33 34 33 36 42 43 45 45 44 45 47 46 44 43 45 44 43 44 47 47 52 57 58 61 55 52 45 37 39 38 37 38 35 31 31 37 32 25
48 37 19 23 21 10 10 18 26 24 24 28 30 32 35 37 38 40 38 38 38 38 37 36 34 35 38 40 41 29 18 39 43 43 41 43 41 38 33 35 30 31 31 31 31 32 31 30 21
81 20 16 10 9 9 8 8 18 17 18 22 25 28 31 30 32 33 32 33 33 31 26 22 22 23 22 23 22 20 25 38 41 40 31 26 22 19 24 29 16 22 25 23 20 22 18 18 16
71 350 8 354 347 359 359 2 7 13 14 19 22 25 26 27 30 31 32 32 30 27 24 21 16 14 12 15 14 8 9 19 25 27 20 14 6 5 9 7 4 8 10 7 1 5 9 7 3
241 283 344 333 325 336 346 348 354 4 11 12 12 16 19 21 26 28 29 30 28 25 20 15 13 11 12 12 3 354 348 354 360 7 1 2 9 9 2 356 352 352 353 353 354 358 360 354 357
259 282 292 299 307 328 336 347 347 351 1 4 8 12 15 17 20 22 24 25 24 23 20 13 9 8 4 2 358 351 340 338 338 346 349 356 357 350 354 352 347 338 340 343 343 353 352 350 347
250 256 263 273 288 305 311 332 330 339 351 357 359 4 8 14 14 14 16 18 16 15 13 10 7 2 359 357 353 345 338 330 328 336 346 347 346 344 338 334 333 333 338 338 341 346 341 338 339
241 246 243 252 277 295 305 305 324 332 335 347 347 351 360 5 7 7 9 11 11 8 4 1 360 358 357 352 342 338 336 330 323 322 331 332 328 325 328 327 326 329 327 329 329 332 329 328 332
231 237 234 247 264 281 288 299 313 321 323 330 338 345 347 352 357 358 0 3 3 1 358 355 352 351 351 347 339 334 328 323 316 313 318 321 320 318 321 321 317 316 319 319 318 320 320 319 320
223 231 242 253 273 278 277 280 286 303 303 311 325 335 335 337 344 348 349 352 355 354 353 355 350 343 342 339 334 326 320 312 311 310 311 314 315 316 315 318 315 314 316 314 312 313 315 314 312
219 236 257 275 273 286 280 270 269 282 297 303 310 319 326 329 333 337 339 341 345 347 347 347 346 339 333 331 330 325 320 311 308 307 304 305 309 311 313 314 314 316 316 316 314 311 310 309 309
227 227 240 253 267 273 258 269 278 286 298 297 302 308 314 322 329 333 334 336 337 340 341 340 337 334 331 326 322 318 312 310 305 305 306 307 307 308 310 313 315 318 317 313 309 306 307 307 309
226 220 231 243 254 259 253 266 269 272 286 289 294 299 308 317 319 320 326 331 332 333 334 333 330 328 326 324 319 312 306 304 304 304 306 309 307 307 309 312 313 314 315 313 309 307 306 305 305
236 229 231 230 243 260 250 253 255 262 277 281 285 287 297 310 315 317 322 327 326 327 327 327 324 322 319 317 317 312 306 302 300 301 304 306 307 306 308 310 309 310 311 311 311 308 305 305 305
239 235 235 239 244 257 259 250 249 258 271 274 279 281 291 302 310 313 318 325 325 323 321 318 316 317 316 313 312 308 305 302 299 298 300 301 303 302 303 305 307 308 308 309 310 311 309 306 305
238 241 241 244 247 250 260 257 261 266 276 276 278 278 289 296 299 307 312 316 317 319 319 314 314 314 312 309 307 306 305 303 300 299 298 297 299 299 299 301 305 306 306 305 306 307 307 305 303
Height
5892 5892 5891 5890 5890 5890 5890 5889 5888 5887 5886 5885 5884 5883 5882 5882 5883 5884 5881 5879 5880 5880 5880 5880 5880 5880 5881 5881 5882 5882 5883 5883 5883 5883 5884 5884 5884 5884 5884 5884 5884 5883 5884 5884 5884 5884 5884 5884 5883
5894 5895 5893 5891 5892 5892 5892 5891 5890 5888 5888 5886 5885 5884 5883 5883 5883 5882 5880 5880 5880 5880 5880 5881 5881 5881 5882 5882 5883 5883 5883 5884 5884 5884 5884 5885 5885 5885 5885 5884 5884 5884 5884 5884 5884 5884 5884 5884 5883
5896 5895 5894 5894 5895 5895 5894 5893 5891 5890 5889 5888 5887 5886 5885 5884 5883 5882 5881 5880 5880 5881 5881 5882 5882 5882 5883 5883 5884 5884 5884 5885 5885 5885 5885 5885 5885 5885 5885 5885 5885 5885 5885 5885 5885 5885 5884 5884 5883
5898 5897 5896 5898 5897 5897 5896 5894 5893 5891 5890 5889 5888 5886 5885 5884 5883 5883 5882 5881 5882 5882 5882 5882 5883 5884 5884 5885 5885 5885 5886 5886 5886 5886 5886 5886 5886 5886 5886 5886 5886 5886 5886 5886 5886 5885 5885 5885 5884
5899 5897 5899 5900 5900 5899 5898 5896 5894 5893 5891 5889 5889 5887 5886 5885 5884 5884 5883 5883 5883 5884 5884 5884 5884 5885 5886 5886 5886 5887 5887 5887 5887 5887 5887 5887 5887 5887 5887 5887 5887 5887 5887 5887 5886 5886 5886 5885 5885
5900 5898 5902 5903 5903 5901 5899 5897 5896 5895 5893 5891 5890 5888 5887 5886 5885 5884 5884 5885 5885 5885 5885 5885 5886 5886 5887 5887 5888 5888 5888 5888 5889 5889 5889 5888 5888 5888 5888 5888 5888 5888 5888 5887 5887 5887 5886 5886 5885
5903 5903 5905 5906 5904 5903 5902 5899 5898 5896 5895 5893 5891 5890 5888 5887 5887 5886 5886 5886 5886 5886 5887 5887 5887 5888 5888 5888 5889 5889 5889 5890 5890 5890 5890 5890 5890 5889 5889 5889 5889 5889 5889 5888 5888 5887 5887 5887 5886
5905 5908 5909 5908 5907 5906 5904 5902 5900 5898 5896 5895 5893 5892 5890 5889 5888 5887 5887 5887 5887 5888 5888 5889 5889 5889 5889 5890 5890 5890 5890 5891 5891 5891 5891 5891 5891 5891 5890 5890 5890 5890 5890 5889 5889 5889 5888 5888 5887
5910 5912 5912 5911 5909 5908 5906 5904 5902 5900 5899 5897 5895 5893 5892 5891 5890 5889 5889 5889 5889 5889 5890 5890 5890 5891 5891 5891 5891 5891 5892 5892 5892 5892 5892 5892 5892 5892 5892 5892 5892 5892 5891 5891 5890 5890 5889 5889 5888
5914 5915 5914 5913 5911 5910 5908 5906 5904 5902 5901 5899 5897 5895 5894 5892 5892 5891 5891 5891 5891 5891 5891 5891 5892 5892 5892 5892 5892 5893 5893 5893 5893 5893 5893 5893 5894 5893 5893 5893 5893 5893 5893 5892 5892 5891 5891 5890 5889
5917 5917 5916 5915 5913 5911 5910 5908 5906 5904 5903 5901 5899 5897 5896 5895 5894 5893 5893 5892 5892 5892 5893 5893 5893 5893 5893 5893 5894 5894 5894 5894 5894 5894 5894 5895 5895 5895 5895 5895 5894 5894 5894 5893 5893 5892 5892 5891 5890
5919 5919 5918 5917 5915 5914 5912 5910 5909 5907 5905 5903 5901 5900 5898 5897 5896 5895 5895 5894 5894 5894 5894 5894 5894 5894 5894 5895 5895 5895 5895 5895 5895 5895 5896 5896 5896 5896 5896 5896 5895 5895 5895 5894 5894 5893 5893 5892 5891
5921 5921 5919 5919 5917 5916 5914 5912 5911 5909 5907 5905 5904 5902 5901 5899 5898 5898 5897 5896 5896 5896 5896 5896 5896 5896 5896 5896 5896 5896 5896 5896 5896 5896 5896 5897 5897 5897 5897 5897 5896 5896 5896 5895 5895 5894 5893 5893 5892
5922 5922 5921 5920 5919 5917 5915 5914 5913 5911 5910 5908 5906 5904 5903 5902 5901 5900 5899 5898 5898 5898 5898 5897 5897 5897 5897 5897 5897 5897 5897 5897 5897 5897 5898 5898 5898 5898 5898 5898 5897 5897 5897 5896 5896 5894 5894 5893 5893
5923 5923 5923 5922 5921 5919 5918 5916 5915 5913 5912 5910 5908 5907 5905 5904 5903 5902 5901 5900 5900 5899 5899 5899 5898 5898 5898 5898 5898 5898 5898 5898 5898 5898 5899 5899 5899 5899 5899 5899 5898 5898 5897 5897 5896 5896 5895 5894 5893
5924 5925 5924 5924 5923 5921 5921 5919 5916 5915 5914 5912 5911 5909 5908 5906 5905 5904 5903 5902 5902 5901 5901 5900 5900 5899 5899 5899 5899 5899 5899 5899 5899 5899 5899 5900 5900 5900 5899 5899 5899 5898 5898 5897 5897 5896 5896 5895 5894
5925 5926 5926 5926 5925 5923 5922 5920 5918 5917 5915 5914 5912 5911 5910 5908 5907 5906 5905 5904 5903 5903 5902 5901 5901 5900 5900 5900 5900 5900 5900 5900 5900 5900 5900 5900 5900 5901 5900 5900 5900 5899 5899 5898 5898 5897 5896 5896 5895
5926 5928 5928 5927 5926 5925 5924 5922 5920 5919 5917 5916 5914 5913 5912 5910 5909 5908 5907 5906 5905 5904 5903 5903 5902 5901 5901 5900 5900 5900 5901 5901 5901 5901 5901 5901 5901 5901 5901 5901 5900 5899 5899 5899 5898 5897 5896 5896 5895
5926 5927 5927 5928 5927 5926 5925 5923 5921 5920 5918 5917 5916 5914 5913 5912 5911 5910 5908 5908 5907 5906 5905 5904 5903 5902 5902 5901 5901 5901 5901 5901 5902 5902 5902 5902 5902 5902 5902 5901 5900 5900 5900 5899 5898 5897 5897 5896 5895
5926 5927 5928 5928 5928 5926 5925 5924 5921 5920 5920 5918 5917 5916 5914 5913 5912 5911 5910 5909 5908 5907 5906 5905 5904 5903 5902 5902 5902 5901 5902 5902 5902 5902 5902 5902 5902 5902 5902 5901 5901 5900 5900 5899 5898 5897 5897 5896 5895
5926 5928 5929 5928 5927 5925 5925 5924 5923 5921 5921 5920 5918 5917 5916 5915 5913 5912 5911 5910 5909 5908 5907 5906 5905 5904 5903 5903 5902 5902 5902 5902 5902 5902 5902 5903 5902 5902 5902 5901 5901 5900 5900 5899 5898 5897 5897 5896 5895
5926 5927 5927 5927 5926 5925 5925 5925 5923 5922 5921 5920 5919 5918 5916 5915 5914 5913 5912 5911 5910 5909 5907 5906 5905 5904 5904 5903 5903 5903 5903 5903 5903 5903 5903 5903 5902 5902 5901 5901 5900 5899 5899 5898 5898 5897 5896 5895 5894
5924 5925 5925 5925 5925 5925 5925 5925 5924 5923 5921 5920 5920 5918 5917 5916 5915 5914 5913 5911 5910 5909 5908 5907 5906 5905 5904 5904 5903 5903 5903 5903 5903 5903 5903 5902 5902 5901 5901 5900 5899 5899 5898 5897 5896 5896 5894 5894 5893
5923 5924 5924 5924 5924 5924 5925 5925 5925 5924 5923 5921 5920 5918 5918 5916 5915 5914 5913 5912 5911 5909 5908 5907 5906 5905 5905 5904 5904 5903 5903 5903 5902 5902 5902 5902 5901 5901 5900 5899 5898 5898 5897 5896 5895 5894 5893 5892 5892
5922 5923 5923 5924 5924 5924 5925 5924 5925 5923 5922 5921 5920 5919 5918 5917 5915 5914 5913 5912 5911 5910 5908 5907 5906 5906 5905 5904 5903 5903 5902 5902 5902 5901 5901 5901 5900 5900 5899 5898 5897 5896 5895 5894 5893 5892 5892 5891 5890
5919 5922 5923 5924 5924 5924 5924 5924 5923 5922 5921 5920 5919 5918 5917 5916 5915 5914 5913 5912 5911 5909 5908 5907 5906 5905 5904 5904 5903 5902 5902 5901 5901 5900 5900 5899 5899 5898 5897 5896 5896 5895 5894 5893 5892 5891 5889 5889 5887
5916 5919 5921 5922 5923 5923 5922 5922 5921 5920 5920 5919 5918 5917 5916 5915 5914 5913 5912 5911 5910 5909 5908 5907 5906 5905 5904 5903 5902 5901 5901 5900 5900 5899 5898 5898 5897 5896 5896 5895 5894 5893 5892 5890 5889 5888 5887 5886 5885
5914 5917 5918 5919 5920 5919 5920 5920 5920 5918 5917 5917 5916 5915 5914 5914 5913 5912 5911 5910 5909 5907 5907 5906 5905 5903 5902 5901 5901 5900 5899 5898 5898 5897 5897 5896 5895 5894 5893 5892 5892 5890 5889 5888 5886 5885 5884 5882 5881
5912 5914 5914 5916 5917 5917 5917 5919 5916 5915 5915 5914 5914 5913 5913 5912 5911 5910 5909 5908 5907 5906 5904 5904 5902 5901 5900 5900 5899 5898 5897 5896 5896 5895 5894 5893 5893 5892 5891 5890 5889 5888 5886 5885 5883 5882 5881 5879 5878
5909 5911 5913 5914 5914 5914 5913 5916 5913 5914 5913 5912 5911 5910 5910 5911 5910 5908 5906 5907 5906 5904 5903 5902 5901 5899 5898 5897 5896 5895 5895 5894 5893 5892 5892 5891 5890 5889 5888 5887 5886 5884 5883 5882 5880 5878 5877 5875 5874